Satellite: NCUBE2
Catalog number: 28897
Epoch time:      08031.65788334
Element set:     466
Inclination:      098.1132 deg
RA of node:       288.7095 deg
Eccentricity:    0.0018058
Arg of perigee:   118.5209 deg
Mean anomaly:     241.7816 deg
Mean motion:   14.59798091 rev/day
Decay rate:       1.08e-06 rev/day^2
Epoch rev:           11270
Checksum:              330

Satellite: FCAL
Catalog number: 29667
Epoch time:      08031.89902088
Element set:     718
Inclination:      051.6328 deg
RA of node:       326.0199 deg
Eccentricity:    0.0009476
Arg of perigee:   154.3357 deg
Mean anomaly:     205.8100 deg
Mean motion:   16.00293170 rev/day
Decay rate:     3.2361e-04 rev/day^2
Epoch rev:            6446
Checksum:              298

Satellite: FALCON
Catalog number: 30776
Epoch time:      08031.86440029
Element set:     238
Inclination:      035.4342 deg
RA of node:       266.2538 deg
Eccentricity:    0.0001904
Arg of perigee:   291.0767 deg
Mean anomaly:     068.9749 deg
Mean motion:   15.02866423 rev/day
Decay rate:       3.08e-06 rev/day^2
Epoch rev:            4947
Checksum:              304

Satellite: MAST
Catalog number: 31126
Epoch time:      08030.24469176
Element set:    0244
Inclination:      098.0565 deg
RA of node:       100.1248 deg
Eccentricity:    0.0095655
Arg of perigee:   042.8864 deg
Mean anomaly:     317.9760 deg
Mean motion:   14.53396112 rev/day
Decay rate:        5.7e-07 rev/day^2
Epoch rev:           04183
Checksum:              290

Satellite: CAPE1
Catalog number: 31130
Epoch time:      08030.95138172
Element set:    0230
Inclination:      098.0598 deg
RA of node:       100.1330 deg
Eccentricity:    0.0103760
Arg of perigee:   042.6733 deg
Mean anomaly:     318.2467 deg
Mean motion:   14.51926239 rev/day
Decay rate:        2.2e-07 rev/day^2
Epoch rev:           04166
Checksum:              254

/EX





More information about the Keps mailing list